#datetime,building,power
2022-03-02T00:00:00,mnr,8.83
2022-03-02T00:01:00,mnr,8.89
2022-03-02T00:02:00,mnr,8.95
2022-03-02T00:03:00,mnr,8.92
2022-03-02T00:04:00,mnr,8.98
2022-03-02T00:05:00,mnr,9.05
2022-03-02T00:06:00,mnr,9.64
2022-03-02T00:07:00,mnr,9.05
2022-03-02T00:08:00,mnr,9.03
2022-03-02T00:09:00,mnr,9.10
2022-03-02T00:10:00,mnr,9.55
2022-03-02T00:11:00,mnr,9.36
2022-03-02T00:12:00,mnr,9.19
2022-03-02T00:13:00,mnr,9.26
2022-03-02T00:14:00,mnr,9.18
2022-03-02T00:15:00,mnr,9.28
2022-03-02T00:16:00,mnr,9.62
2022-03-02T00:17:00,mnr,9.32
2022-03-02T00:18:00,mnr,9.19
2022-03-02T00:19:00,mnr,9.23
2022-03-02T00:20:00,mnr,9.62
2022-03-02T00:21:00,mnr,9.15
2022-03-02T00:22:00,mnr,9.12
2022-03-02T00:23:00,mnr,9.11
2022-03-02T00:24:00,mnr,9.47
2022-03-02T00:25:00,mnr,9.53
2022-03-02T00:26:00,mnr,9.42
2022-03-02T00:27:00,mnr,9.43
2022-03-02T00:28:00,mnr,9.47
2022-03-02T00:29:00,mnr,9.48
2022-03-02T00:30:00,mnr,9.82
2022-03-02T00:31:00,mnr,9.96
2022-03-02T00:32:00,mnr,9.32
2022-03-02T00:33:00,mnr,8.89
2022-03-02T00:34:00,mnr,9.50
2022-03-02T00:35:00,mnr,9.31
2022-03-02T00:36:00,mnr,8.79
2022-03-02T00:37:00,mnr,8.51
2022-03-02T00:38:00,mnr,8.47
2022-03-02T00:39:00,mnr,9.04
2022-03-02T00:40:00,mnr,8.57
2022-03-02T00:41:00,mnr,8.56
2022-03-02T00:42:00,mnr,8.18
2022-03-02T00:43:00,mnr,9.10
2022-03-02T00:44:00,mnr,9.10
2022-03-02T00:45:00,mnr,10.10
2022-03-02T00:46:00,mnr,9.19
2022-03-02T00:47:00,mnr,8.97
2022-03-02T00:48:00,mnr,8.96
2022-03-02T00:49:00,mnr,8.99
2022-03-02T00:50:00,mnr,8.84
2022-03-02T00:51:00,mnr,9.39
2022-03-02T00:52:00,mnr,9.03
2022-03-02T00:53:00,mnr,9.43
2022-03-02T00:54:00,mnr,8.96
2022-03-02T00:55:00,mnr,9.56
2022-03-02T00:56:00,mnr,9.01
2022-03-02T00:57:00,mnr,9.40
2022-03-02T00:58:00,mnr,8.90
2022-03-02T00:59:00,mnr,9.18
2022-03-02T01:00:00,mnr,8.89
2022-03-02T01:01:00,mnr,9.50
2022-03-02T01:02:00,mnr,8.92
2022-03-02T01:03:00,mnr,8.88
2022-03-02T01:04:00,mnr,8.88
2022-03-02T01:05:00,mnr,8.55
2022-03-02T01:06:00,mnr,9.53
2022-03-02T01:07:00,mnr,8.54
2022-03-02T01:08:00,mnr,8.53
2022-03-02T01:09:00,mnr,8.43
2022-03-02T01:10:00,mnr,8.51
2022-03-02T01:11:00,mnr,8.51
2022-03-02T01:12:00,mnr,8.51
2022-03-02T01:13:00,mnr,8.55
2022-03-02T01:14:00,mnr,8.53
2022-03-02T01:15:00,mnr,8.47
2022-03-02T01:16:00,mnr,7.86
2022-03-02T01:17:00,mnr,7.87
2022-03-02T01:18:00,mnr,7.84
2022-03-02T01:19:00,mnr,8.68
2022-03-02T01:20:00,mnr,8.79
2022-03-02T01:21:00,mnr,8.73
2022-03-02T01:22:00,mnr,9.04
2022-03-02T01:23:00,mnr,9.23
2022-03-02T01:24:00,mnr,8.56
2022-03-02T01:25:00,mnr,8.48
2022-03-02T01:26:00,mnr,8.52
2022-03-02T01:27:00,mnr,8.40
2022-03-02T01:28:00,mnr,8.34
2022-03-02T01:29:00,mnr,8.41
2022-03-02T01:30:00,mnr,9.01
2022-03-02T01:31:00,mnr,8.31
2022-03-02T01:32:00,mnr,8.35
2022-03-02T01:33:00,mnr,8.41
2022-03-02T01:34:00,mnr,8.39
2022-03-02T01:35:00,mnr,8.26
2022-03-02T01:36:00,mnr,8.26
2022-03-02T01:37:00,mnr,8.29
2022-03-02T01:38:00,mnr,8.24
2022-03-02T01:39:00,mnr,8.26
2022-03-02T01:40:00,mnr,8.25
2022-03-02T01:41:00,mnr,8.76
2022-03-02T01:42:00,mnr,8.77
2022-03-02T01:43:00,mnr,9.24
2022-03-02T01:44:00,mnr,4.97
2022-03-02T01:45:00,mnr,10.00
2022-03-02T01:46:00,mnr,10.87
2022-03-02T01:47:00,mnr,11.01
2022-03-02T01:48:00,mnr,10.60
2022-03-02T01:49:00,mnr,10.63
2022-03-02T01:50:00,mnr,10.58
2022-03-02T01:51:00,mnr,10.94
2022-03-02T01:52:00,mnr,10.47
2022-03-02T01:53:00,mnr,11.03
2022-03-02T01:54:00,mnr,10.19
2022-03-02T01:55:00,mnr,10.22
2022-03-02T01:56:00,mnr,9.41
2022-03-02T01:57:00,mnr,9.46
2022-03-02T01:58:00,mnr,9.87
2022-03-02T01:59:00,mnr,9.66
2022-03-02T02:00:00,mnr,8.74
2022-03-02T02:01:00,mnr,8.23
2022-03-02T02:02:00,mnr,8.26
2022-03-02T02:03:00,mnr,8.32
2022-03-02T02:04:00,mnr,9.00
2022-03-02T02:05:00,mnr,8.95
2022-03-02T02:06:00,mnr,9.01
2022-03-02T02:07:00,mnr,9.52
2022-03-02T02:08:00,mnr,9.48
2022-03-02T02:09:00,mnr,9.01
2022-03-02T02:10:00,mnr,8.45
2022-03-02T02:11:00,mnr,9.05
2022-03-02T02:12:00,mnr,8.66
2022-03-02T02:13:00,mnr,8.65
2022-03-02T02:14:00,mnr,8.81
2022-03-02T02:15:00,mnr,8.84
2022-03-02T02:16:00,mnr,8.93
2022-03-02T02:17:00,mnr,9.04
2022-03-02T02:18:00,mnr,9.03
2022-03-02T02:19:00,mnr,9.54
2022-03-02T02:20:00,mnr,8.59
2022-03-02T02:21:00,mnr,9.81
2022-03-02T02:22:00,mnr,9.78
2022-03-02T02:23:00,mnr,10.26
2022-03-02T02:24:00,mnr,9.80
2022-03-02T02:25:00,mnr,10.29
2022-03-02T02:26:00,mnr,9.63
2022-03-02T02:27:00,mnr,10.32
2022-03-02T02:28:00,mnr,10.25
2022-03-02T02:29:00,mnr,9.61
2022-03-02T02:30:00,mnr,10.15
2022-03-02T02:31:00,mnr,9.55
2022-03-02T02:32:00,mnr,9.56
2022-03-02T02:33:00,mnr,9.08
2022-03-02T02:34:00,mnr,9.70
2022-03-02T02:35:00,mnr,9.41
2022-03-02T02:36:00,mnr,9.83
2022-03-02T02:37:00,mnr,9.27
2022-03-02T02:38:00,mnr,9.36
2022-03-02T02:39:00,mnr,9.30
2022-03-02T02:40:00,mnr,9.75
2022-03-02T02:41:00,mnr,9.29
2022-03-02T02:42:00,mnr,8.95
2022-03-02T02:43:00,mnr,8.94
2022-03-02T02:44:00,mnr,9.61
2022-03-02T02:45:00,mnr,8.91
2022-03-02T02:46:00,mnr,8.90
2022-03-02T02:47:00,mnr,9.08
2022-03-02T02:48:00,mnr,10.08
2022-03-02T02:49:00,mnr,10.01
2022-03-02T02:50:00,mnr,9.97
2022-03-02T02:51:00,mnr,10.12
2022-03-02T02:52:00,mnr,8.93
2022-03-02T02:53:00,mnr,10.26
2022-03-02T02:54:00,mnr,9.41
2022-03-02T02:55:00,mnr,9.86
2022-03-02T02:56:00,mnr,9.41
2022-03-02T02:57:00,mnr,8.21
2022-03-02T02:58:00,mnr,8.82
2022-03-02T02:59:00,mnr,9.29
2022-03-02T03:00:00,mnr,8.78
2022-03-02T03:01:00,mnr,8.86
2022-03-02T03:02:00,mnr,8.82
2022-03-02T03:03:00,mnr,8.79
2022-03-02T03:04:00,mnr,8.83
2022-03-02T03:05:00,mnr,9.29
2022-03-02T03:06:00,mnr,9.49
2022-03-02T03:07:00,mnr,9.33
2022-03-02T03:08:00,mnr,9.22
2022-03-02T03:09:00,mnr,9.27
2022-03-02T03:10:00,mnr,9.65
2022-03-02T03:11:00,mnr,9.33
2022-03-02T03:12:00,mnr,9.24
2022-03-02T03:13:00,mnr,9.79
2022-03-02T03:14:00,mnr,9.30
2022-03-02T03:15:00,mnr,9.55
2022-03-02T03:16:00,mnr,9.48
2022-03-02T03:17:00,mnr,9.32
2022-03-02T03:18:00,mnr,8.79
2022-03-02T03:19:00,mnr,8.66
2022-03-02T03:20:00,mnr,8.65
2022-03-02T03:21:00,mnr,8.69
2022-03-02T03:22:00,mnr,8.57
2022-03-02T03:23:00,mnr,8.44
2022-03-02T03:24:00,mnr,8.46
2022-03-02T03:25:00,mnr,8.73
2022-03-02T03:26:00,mnr,9.24
2022-03-02T03:27:00,mnr,10.11
2022-03-02T03:28:00,mnr,9.62
2022-03-02T03:29:00,mnr,9.25
2022-03-02T03:30:00,mnr,9.88
2022-03-02T03:31:00,mnr,9.21
2022-03-02T03:32:00,mnr,9.22
2022-03-02T03:33:00,mnr,9.15
2022-03-02T03:34:00,mnr,8.66
2022-03-02T03:35:00,mnr,8.62
2022-03-02T03:36:00,mnr,8.60
2022-03-02T03:37:00,mnr,8.63
2022-03-02T03:38:00,mnr,9.19
2022-03-02T03:39:00,mnr,8.43
2022-03-02T03:40:00,mnr,8.34
2022-03-02T03:41:00,mnr,8.27
2022-03-02T03:42:00,mnr,8.16
2022-03-02T03:43:00,mnr,8.59
2022-03-02T03:44:00,mnr,8.09
2022-03-02T03:45:00,mnr,8.09
2022-03-02T03:46:00,mnr,8.14
2022-03-02T03:47:00,mnr,8.05
2022-03-02T03:48:00,mnr,8.27
2022-03-02T03:49:00,mnr,8.00
2022-03-02T03:50:00,mnr,8.08
2022-03-02T03:51:00,mnr,8.73
2022-03-02T03:52:00,mnr,9.03
2022-03-02T03:53:00,mnr,8.79
2022-03-02T03:54:00,mnr,8.92
2022-03-02T03:55:00,mnr,8.66
2022-03-02T03:56:00,mnr,7.76
2022-03-02T03:57:00,mnr,7.73
2022-03-02T03:58:00,mnr,8.37
2022-03-02T03:59:00,mnr,8.64
2022-03-02T04:00:00,mnr,8.65
2022-03-02T04:01:00,mnr,9.08
2022-03-02T04:02:00,mnr,8.55
2022-03-02T04:03:00,mnr,9.20
2022-03-02T04:04:00,mnr,8.55
2022-03-02T04:05:00,mnr,8.55
2022-03-02T04:06:00,mnr,8.56
2022-03-02T04:07:00,mnr,8.57
2022-03-02T04:08:00,mnr,9.30
2022-03-02T04:09:00,mnr,8.77
2022-03-02T04:10:00,mnr,8.68
2022-03-02T04:11:00,mnr,8.65
2022-03-02T04:12:00,mnr,8.69
2022-03-02T04:13:00,mnr,7.62
2022-03-02T04:14:00,mnr,7.64
2022-03-02T04:15:00,mnr,7.94
2022-03-02T04:16:00,mnr,7.26
2022-03-02T04:17:00,mnr,7.50
2022-03-02T04:18:00,mnr,7.32
2022-03-02T04:19:00,mnr,7.41
2022-03-02T04:20:00,mnr,7.33
2022-03-02T04:21:00,mnr,7.39
2022-03-02T04:22:00,mnr,8.49
2022-03-02T04:23:00,mnr,7.30
2022-03-02T04:24:00,mnr,8.02
2022-03-02T04:25:00,mnr,7.56
2022-03-02T04:26:00,mnr,7.15
2022-03-02T04:27:00,mnr,7.14
2022-03-02T04:28:00,mnr,7.12
2022-03-02T04:29:00,mnr,7.85
2022-03-02T04:30:00,mnr,7.25
2022-03-02T04:31:00,mnr,8.13
2022-03-02T04:32:00,mnr,7.32
2022-03-02T04:33:00,mnr,7.19
2022-03-02T04:34:00,mnr,7.12
2022-03-02T04:35:00,mnr,7.26
2022-03-02T04:36:00,mnr,7.71
2022-03-02T04:37:00,mnr,7.17
2022-03-02T04:38:00,mnr,7.20
2022-03-02T04:39:00,mnr,7.16
2022-03-02T04:40:00,mnr,7.23
2022-03-02T04:41:00,mnr,7.07
2022-03-02T04:42:00,mnr,7.14
2022-03-02T04:43:00,mnr,7.59
2022-03-02T04:44:00,mnr,7.11
2022-03-02T04:45:00,mnr,7.13
2022-03-02T04:46:00,mnr,7.14
2022-03-02T04:47:00,mnr,7.08
2022-03-02T04:48:00,mnr,7.09
2022-03-02T04:49:00,mnr,7.13
2022-03-02T04:50:00,mnr,7.48
2022-03-02T04:51:00,mnr,7.16
2022-03-02T04:52:00,mnr,7.12
2022-03-02T04:53:00,mnr,7.05
2022-03-02T04:54:00,mnr,7.54
2022-03-02T04:55:00,mnr,7.10
2022-03-02T04:56:00,mnr,7.24
2022-03-02T04:57:00,mnr,7.12
2022-03-02T04:58:00,mnr,7.55
2022-03-02T04:59:00,mnr,7.29
2022-03-02T05:00:00,mnr,7.18
2022-03-02T05:01:00,mnr,7.61
2022-03-02T05:02:00,mnr,8.80
2022-03-02T05:03:00,mnr,11.31
2022-03-02T05:04:00,mnr,12.50
2022-03-02T05:05:00,mnr,12.99
2022-03-02T05:06:00,mnr,12.55
2022-03-02T05:07:00,mnr,12.52
2022-03-02T05:08:00,mnr,12.60
2022-03-02T05:09:00,mnr,13.03
2022-03-02T05:10:00,mnr,12.57
2022-03-02T05:11:00,mnr,12.57
2022-03-02T05:12:00,mnr,12.50
2022-03-02T05:13:00,mnr,12.52
2022-03-02T05:14:00,mnr,12.46
2022-03-02T05:15:00,mnr,12.42
2022-03-02T05:16:00,mnr,12.48
2022-03-02T05:17:00,mnr,13.06
2022-03-02T05:18:00,mnr,12.44
2022-03-02T05:19:00,mnr,12.97
2022-03-02T05:20:00,mnr,13.33
2022-03-02T05:21:00,mnr,14.21
2022-03-02T05:22:00,mnr,13.33
2022-03-02T05:23:00,mnr,13.19
2022-03-02T05:24:00,mnr,13.51
2022-03-02T05:25:00,mnr,13.31
2022-03-02T05:26:00,mnr,13.35
2022-03-02T05:27:00,mnr,13.58
2022-03-02T05:28:00,mnr,14.35
2022-03-02T05:29:00,mnr,13.46
2022-03-02T05:30:00,mnr,13.46
2022-03-02T05:31:00,mnr,13.41
2022-03-02T05:32:00,mnr,13.44
2022-03-02T05:33:00,mnr,13.62
2022-03-02T05:34:00,mnr,13.65
2022-03-02T05:35:00,mnr,13.41
2022-03-02T05:36:00,mnr,13.70
2022-03-02T05:37:00,mnr,13.93
2022-03-02T05:38:00,mnr,13.44
2022-03-02T05:39:00,mnr,13.37
2022-03-02T05:40:00,mnr,13.36
2022-03-02T05:41:00,mnr,13.83
2022-03-02T05:42:00,mnr,13.38
2022-03-02T05:43:00,mnr,13.37
2022-03-02T05:44:00,mnr,13.67
2022-03-02T05:45:00,mnr,13.87
2022-03-02T05:46:00,mnr,13.44
2022-03-02T05:47:00,mnr,13.41
2022-03-02T05:48:00,mnr,13.44
2022-03-02T05:49:00,mnr,13.35
2022-03-02T05:50:00,mnr,13.37
2022-03-02T05:51:00,mnr,13.97
2022-03-02T05:52:00,mnr,13.82
2022-03-02T05:53:00,mnr,13.37
2022-03-02T05:54:00,mnr,13.27
2022-03-02T05:55:00,mnr,13.24
2022-03-02T05:56:00,mnr,14.22
2022-03-02T05:57:00,mnr,13.26
2022-03-02T05:58:00,mnr,14.20
2022-03-02T05:59:00,mnr,14.17
2022-03-02T06:00:00,mnr,14.67
2022-03-02T06:01:00,mnr,14.30
2022-03-02T06:02:00,mnr,14.41
2022-03-02T06:03:00,mnr,14.44
2022-03-02T06:04:00,mnr,15.06
2022-03-02T06:05:00,mnr,14.51
2022-03-02T06:06:00,mnr,14.83
2022-03-02T06:07:00,mnr,14.30
2022-03-02T06:08:00,mnr,14.70
2022-03-02T06:09:00,mnr,14.48
2022-03-02T06:10:00,mnr,15.20
2022-03-02T06:11:00,mnr,15.17
2022-03-02T06:12:00,mnr,15.70
2022-03-02T06:13:00,mnr,15.11
2022-03-02T06:14:00,mnr,14.93
2022-03-02T06:15:00,mnr,15.01
2022-03-02T06:16:00,mnr,16.86
2022-03-02T06:17:00,mnr,15.09
2022-03-02T06:18:00,mnr,15.71
2022-03-02T06:19:00,mnr,15.09
2022-03-02T06:20:00,mnr,15.41
2022-03-02T06:21:00,mnr,15.60
2022-03-02T06:22:00,mnr,14.97
2022-03-02T06:23:00,mnr,15.71
2022-03-02T06:24:00,mnr,15.90
2022-03-02T06:25:00,mnr,15.77
2022-03-02T06:26:00,mnr,15.80
2022-03-02T06:27:00,mnr,15.72
2022-03-02T06:28:00,mnr,15.78
2022-03-02T06:29:00,mnr,16.28
2022-03-02T06:30:00,mnr,15.79
2022-03-02T06:31:00,mnr,15.78
2022-03-02T06:32:00,mnr,15.84
2022-03-02T06:33:00,mnr,26.52
2022-03-02T06:34:00,mnr,15.73
2022-03-02T06:35:00,mnr,20.19
2022-03-02T06:36:00,mnr,20.13
2022-03-02T06:37:00,mnr,19.90
2022-03-02T06:38:00,mnr,19.43
2022-03-02T06:39:00,mnr,20.01
2022-03-02T06:40:00,mnr,19.35
2022-03-02T06:41:00,mnr,19.34
2022-03-02T06:42:00,mnr,19.34
2022-03-02T06:43:00,mnr,19.35
2022-03-02T06:44:00,mnr,19.53
2022-03-02T06:45:00,mnr,19.11
2022-03-02T06:46:00,mnr,19.25
2022-03-02T06:47:00,mnr,19.15
2022-03-02T06:48:00,mnr,19.18
2022-03-02T06:49:00,mnr,19.45
2022-03-02T06:50:00,mnr,19.12
2022-03-02T06:51:00,mnr,19.38
2022-03-02T06:52:00,mnr,19.13
2022-03-02T06:53:00,mnr,20.47
2022-03-02T06:54:00,mnr,19.32
2022-03-02T06:55:00,mnr,19.35
2022-03-02T06:56:00,mnr,19.23
2022-03-02T06:57:00,mnr,20.75
2022-03-02T06:58:00,mnr,20.96
2022-03-02T06:59:00,mnr,20.36
2022-03-02T07:00:00,mnr,20.41
2022-03-02T07:01:00,mnr,20.91
2022-03-02T07:02:00,mnr,20.37
2022-03-02T07:03:00,mnr,20.70
2022-03-02T07:04:00,mnr,20.46
2022-03-02T07:05:00,mnr,20.60
2022-03-02T07:06:00,mnr,20.58
2022-03-02T07:07:00,mnr,19.33
2022-03-02T07:08:00,mnr,15.83
2022-03-02T07:09:00,mnr,19.67
2022-03-02T07:10:00,mnr,19.27
2022-03-02T07:11:00,mnr,19.39
2022-03-02T07:12:00,mnr,19.00
2022-03-02T07:13:00,mnr,19.46
2022-03-02T07:14:00,mnr,19.35
2022-03-02T07:15:00,mnr,19.27
2022-03-02T07:16:00,mnr,19.29
2022-03-02T07:17:00,mnr,19.29
2022-03-02T07:18:00,mnr,19.22
2022-03-02T07:19:00,mnr,19.26
2022-03-02T07:20:00,mnr,19.81
2022-03-02T07:21:00,mnr,19.37
2022-03-02T07:22:00,mnr,19.38
2022-03-02T07:23:00,mnr,17.25
2022-03-02T07:24:00,mnr,21.81
2022-03-02T07:25:00,mnr,19.94
2022-03-02T07:26:00,mnr,19.39
2022-03-02T07:27:00,mnr,19.33
2022-03-02T07:28:00,mnr,19.88
2022-03-02T07:29:00,mnr,19.60
2022-03-02T07:30:00,mnr,19.44
2022-03-02T07:31:00,mnr,19.46
2022-03-02T07:32:00,mnr,19.43
2022-03-02T07:33:00,mnr,19.58
2022-03-02T07:34:00,mnr,19.44
2022-03-02T07:35:00,mnr,19.41
2022-03-02T07:36:00,mnr,19.42
2022-03-02T07:37:00,mnr,20.01
2022-03-02T07:38:00,mnr,19.45
2022-03-02T07:39:00,mnr,19.35
2022-03-02T07:40:00,mnr,19.98
2022-03-02T07:41:00,mnr,19.42
2022-03-02T07:42:00,mnr,19.69
2022-03-02T07:43:00,mnr,19.51
2022-03-02T07:44:00,mnr,19.60
2022-03-02T07:45:00,mnr,20.11
2022-03-02T07:46:00,mnr,20.50
2022-03-02T07:47:00,mnr,19.76
2022-03-02T07:48:00,mnr,19.82
2022-03-02T07:49:00,mnr,20.79
2022-03-02T07:50:00,mnr,20.12
2022-03-02T07:51:00,mnr,20.58
2022-03-02T07:52:00,mnr,19.97
2022-03-02T07:53:00,mnr,16.70
2022-03-02T07:54:00,mnr,20.69
2022-03-02T07:55:00,mnr,16.35
2022-03-02T07:56:00,mnr,17.38
2022-03-02T07:57:00,mnr,17.37
2022-03-02T07:58:00,mnr,27.68
2022-03-02T07:59:00,mnr,18.25
2022-03-02T08:00:00,mnr,29.21
2022-03-02T08:01:00,mnr,18.83
2022-03-02T08:02:00,mnr,20.63
2022-03-02T08:03:00,mnr,17.49
2022-03-02T08:04:00,mnr,17.89
2022-03-02T08:05:00,mnr,17.45
2022-03-02T08:06:00,mnr,17.39
2022-03-02T08:07:00,mnr,17.55
2022-03-02T08:08:00,mnr,17.41
2022-03-02T08:09:00,mnr,18.36
2022-03-02T08:10:00,mnr,17.53
2022-03-02T08:11:00,mnr,18.36
2022-03-02T08:12:00,mnr,17.51
2022-03-02T08:13:00,mnr,17.55
2022-03-02T08:14:00,mnr,17.62
2022-03-02T08:15:00,mnr,17.61
2022-03-02T08:16:00,mnr,17.62
2022-03-02T08:17:00,mnr,17.71
2022-03-02T08:18:00,mnr,18.14
2022-03-02T08:19:00,mnr,18.63
2022-03-02T08:20:00,mnr,18.29
2022-03-02T08:21:00,mnr,18.96
2022-03-02T08:22:00,mnr,18.33
2022-03-02T08:23:00,mnr,18.42
2022-03-02T08:24:00,mnr,18.14
2022-03-02T08:25:00,mnr,18.38
2022-03-02T08:26:00,mnr,17.97
2022-03-02T08:27:00,mnr,17.56
2022-03-02T08:28:00,mnr,17.53
2022-03-02T08:29:00,mnr,18.75
2022-03-02T08:30:00,mnr,18.70
2022-03-02T08:31:00,mnr,18.90
2022-03-02T08:32:00,mnr,18.13
2022-03-02T08:33:00,mnr,19.04
2022-03-02T08:34:00,mnr,18.58
2022-03-02T08:35:00,mnr,20.73
2022-03-02T08:36:00,mnr,18.60
2022-03-02T08:37:00,mnr,19.56
2022-03-02T08:38:00,mnr,22.04
2022-03-02T08:39:00,mnr,21.39
2022-03-02T08:40:00,mnr,20.76
2022-03-02T08:41:00,mnr,20.54
2022-03-02T08:42:00,mnr,21.82
2022-03-02T08:43:00,mnr,19.88
2022-03-02T08:44:00,mnr,20.69
2022-03-02T08:45:00,mnr,19.92
2022-03-02T08:46:00,mnr,19.45
2022-03-02T08:47:00,mnr,19.67
2022-03-02T08:48:00,mnr,19.27
2022-03-02T08:49:00,mnr,19.24
2022-03-02T08:50:00,mnr,19.95
2022-03-02T08:51:00,mnr,19.07
2022-03-02T08:52:00,mnr,19.42
2022-03-02T08:53:00,mnr,19.80
2022-03-02T08:54:00,mnr,19.53
2022-03-02T08:55:00,mnr,26.68
2022-03-02T08:56:00,mnr,24.86
2022-03-02T08:57:00,mnr,30.94
2022-03-02T08:58:00,mnr,20.72
2022-03-02T08:59:00,mnr,20.56
2022-03-02T09:00:00,mnr,16.01
2022-03-02T09:01:00,mnr,20.28
2022-03-02T09:02:00,mnr,30.14
2022-03-02T09:03:00,mnr,20.41
2022-03-02T09:04:00,mnr,20.84
2022-03-02T09:05:00,mnr,20.39
2022-03-02T09:06:00,mnr,20.35
2022-03-02T09:07:00,mnr,19.89
2022-03-02T09:08:00,mnr,19.48
2022-03-02T09:09:00,mnr,19.39
2022-03-02T09:10:00,mnr,19.49
2022-03-02T09:11:00,mnr,19.39
2022-03-02T09:12:00,mnr,20.04
2022-03-02T09:13:00,mnr,19.50
2022-03-02T09:14:00,mnr,20.59
2022-03-02T09:15:00,mnr,20.20
2022-03-02T09:16:00,mnr,20.38
2022-03-02T09:17:00,mnr,19.63
2022-03-02T09:18:00,mnr,19.63
2022-03-02T09:19:00,mnr,20.15
2022-03-02T09:20:00,mnr,20.48
2022-03-02T09:21:00,mnr,20.62
2022-03-02T09:22:00,mnr,20.47
2022-03-02T09:23:00,mnr,20.03
2022-03-02T09:24:00,mnr,20.64
2022-03-02T09:25:00,mnr,20.00
2022-03-02T09:26:00,mnr,20.04
2022-03-02T09:27:00,mnr,20.62
2022-03-02T09:28:00,mnr,20.15
2022-03-02T09:29:00,mnr,20.22
2022-03-02T09:30:00,mnr,20.32
2022-03-02T09:31:00,mnr,20.78
2022-03-02T09:32:00,mnr,20.03
2022-03-02T09:33:00,mnr,19.90
2022-03-02T09:34:00,mnr,20.03
2022-03-02T09:35:00,mnr,20.53
2022-03-02T09:36:00,mnr,20.48
2022-03-02T09:37:00,mnr,20.04
2022-03-02T09:38:00,mnr,20.80
2022-03-02T09:39:00,mnr,20.62
2022-03-02T09:40:00,mnr,20.24
2022-03-02T09:41:00,mnr,20.24
2022-03-02T09:42:00,mnr,21.47
2022-03-02T09:43:00,mnr,25.95
2022-03-02T09:44:00,mnr,20.26
2022-03-02T09:45:00,mnr,20.36
2022-03-02T09:46:00,mnr,20.38
2022-03-02T09:47:00,mnr,18.95
2022-03-02T09:48:00,mnr,23.02
2022-03-02T09:49:00,mnr,22.84
2022-03-02T09:50:00,mnr,21.41
2022-03-02T09:51:00,mnr,20.00
2022-03-02T09:52:00,mnr,20.93
2022-03-02T09:53:00,mnr,21.15
2022-03-02T09:54:00,mnr,21.21
2022-03-02T09:55:00,mnr,20.50
2022-03-02T09:56:00,mnr,20.77
2022-03-02T09:57:00,mnr,20.66
2022-03-02T09:58:00,mnr,30.66
2022-03-02T09:59:00,mnr,29.79
2022-03-02T10:00:00,mnr,19.69
2022-03-02T10:01:00,mnr,21.04
2022-03-02T10:02:00,mnr,19.75
2022-03-02T10:03:00,mnr,17.17
2022-03-02T10:04:00,mnr,19.16
2022-03-02T10:05:00,mnr,20.43
2022-03-02T10:06:00,mnr,19.81
2022-03-02T10:07:00,mnr,19.79
2022-03-02T10:08:00,mnr,20.64
2022-03-02T10:09:00,mnr,20.55
2022-03-02T10:10:00,mnr,19.71
2022-03-02T10:11:00,mnr,19.33
2022-03-02T10:12:00,mnr,20.80
2022-03-02T10:13:00,mnr,22.12
2022-03-02T10:14:00,mnr,21.13
2022-03-02T10:15:00,mnr,21.36
2022-03-02T10:16:00,mnr,21.53
2022-03-02T10:17:00,mnr,21.17
2022-03-02T10:18:00,mnr,20.93
2022-03-02T10:19:00,mnr,20.16
2022-03-02T10:20:00,mnr,19.31
2022-03-02T10:21:00,mnr,19.88
2022-03-02T10:22:00,mnr,19.24
2022-03-02T10:23:00,mnr,19.60
2022-03-02T10:24:00,mnr,19.77
2022-03-02T10:25:00,mnr,20.25
2022-03-02T10:26:00,mnr,20.14
2022-03-02T10:27:00,mnr,19.99
2022-03-02T10:28:00,mnr,18.98
2022-03-02T10:29:00,mnr,18.89
2022-03-02T10:30:00,mnr,20.45
2022-03-02T10:31:00,mnr,20.75
2022-03-02T10:32:00,mnr,20.00
2022-03-02T10:33:00,mnr,20.00
2022-03-02T10:34:00,mnr,19.83
2022-03-02T10:35:00,mnr,19.86
2022-03-02T10:36:00,mnr,19.74
2022-03-02T10:37:00,mnr,18.55
2022-03-02T10:38:00,mnr,18.33
2022-03-02T10:39:00,mnr,18.23
2022-03-02T10:40:00,mnr,18.28
2022-03-02T10:41:00,mnr,19.32
2022-03-02T10:42:00,mnr,17.94
2022-03-02T10:43:00,mnr,17.91
2022-03-02T10:44:00,mnr,18.28
2022-03-02T10:45:00,mnr,18.38
2022-03-02T10:46:00,mnr,18.25
2022-03-02T10:47:00,mnr,18.45
2022-03-02T10:48:00,mnr,17.93
2022-03-02T10:49:00,mnr,18.03
2022-03-02T10:50:00,mnr,17.86
2022-03-02T10:51:00,mnr,17.91
2022-03-02T10:52:00,mnr,18.10
2022-03-02T10:53:00,mnr,18.18
2022-03-02T10:54:00,mnr,18.15
2022-03-02T10:55:00,mnr,16.86
2022-03-02T10:56:00,mnr,17.32
2022-03-02T10:57:00,mnr,16.83
2022-03-02T10:58:00,mnr,16.64
2022-03-02T10:59:00,mnr,16.59
2022-03-02T11:00:00,mnr,18.02
2022-03-02T11:01:00,mnr,16.37
2022-03-02T11:02:00,mnr,16.51
2022-03-02T11:03:00,mnr,12.84
2022-03-02T11:04:00,mnr,16.67
2022-03-02T11:05:00,mnr,13.54
2022-03-02T11:06:00,mnr,16.64
2022-03-02T11:07:00,mnr,16.59
2022-03-02T11:08:00,mnr,16.72
2022-03-02T11:09:00,mnr,16.59
2022-03-02T11:10:00,mnr,28.75
2022-03-02T11:11:00,mnr,14.71
2022-03-02T11:12:00,mnr,17.61
2022-03-02T11:13:00,mnr,17.83
2022-03-02T11:14:00,mnr,17.81
2022-03-02T11:15:00,mnr,18.22
2022-03-02T11:16:00,mnr,18.72
2022-03-02T11:17:00,mnr,17.74
2022-03-02T11:18:00,mnr,17.59
2022-03-02T11:19:00,mnr,17.93
2022-03-02T11:20:00,mnr,17.53
2022-03-02T11:21:00,mnr,17.65
2022-03-02T11:22:00,mnr,17.61
2022-03-02T11:23:00,mnr,20.90
2022-03-02T11:24:00,mnr,21.25
2022-03-02T11:25:00,mnr,19.40
2022-03-02T11:26:00,mnr,19.27
2022-03-02T11:27:00,mnr,20.42
2022-03-02T11:28:00,mnr,19.27
2022-03-02T11:29:00,mnr,19.25
2022-03-02T11:30:00,mnr,19.26
2022-03-02T11:31:00,mnr,19.32
2022-03-02T11:32:00,mnr,19.14
2022-03-02T11:33:00,mnr,20.37
2022-03-02T11:34:00,mnr,19.87
2022-03-02T11:35:00,mnr,20.67
2022-03-02T11:36:00,mnr,20.75
2022-03-02T11:37:00,mnr,20.80
2022-03-02T11:38:00,mnr,22.19
2022-03-02T11:39:00,mnr,21.09
2022-03-02T11:40:00,mnr,20.56
2022-03-02T11:41:00,mnr,20.45
2022-03-02T11:42:00,mnr,21.61
2022-03-02T11:43:00,mnr,19.41
2022-03-02T11:44:00,mnr,18.01
2022-03-02T11:45:00,mnr,18.04
2022-03-02T11:46:00,mnr,18.02
2022-03-02T11:47:00,mnr,18.51
2022-03-02T11:48:00,mnr,18.79
2022-03-02T11:49:00,mnr,18.12
2022-03-02T11:50:00,mnr,18.08
2022-03-02T11:51:00,mnr,18.65
2022-03-02T11:52:00,mnr,17.98
2022-03-02T11:53:00,mnr,18.08
2022-03-02T11:54:00,mnr,18.17
2022-03-02T11:55:00,mnr,19.48
2022-03-02T11:56:00,mnr,20.67
2022-03-02T11:57:00,mnr,19.37
2022-03-02T11:58:00,mnr,19.19
2022-03-02T11:59:00,mnr,19.14
2022-03-02T12:00:00,mnr,19.78
2022-03-02T12:01:00,mnr,19.71
2022-03-02T12:02:00,mnr,20.95
2022-03-02T12:03:00,mnr,19.85
2022-03-02T12:04:00,mnr,20.38
2022-03-02T12:05:00,mnr,20.60
2022-03-02T12:06:00,mnr,19.60
2022-03-02T12:07:00,mnr,19.59
2022-03-02T12:08:00,mnr,20.47
2022-03-02T12:09:00,mnr,17.04
2022-03-02T12:10:00,mnr,20.81
2022-03-02T12:11:00,mnr,19.99
2022-03-02T12:12:00,mnr,20.52
2022-03-02T12:13:00,mnr,28.15
2022-03-02T12:14:00,mnr,20.05
2022-03-02T12:15:00,mnr,20.00
2022-03-02T12:16:00,mnr,20.93
2022-03-02T12:17:00,mnr,20.39
2022-03-02T12:18:00,mnr,19.62
2022-03-02T12:19:00,mnr,20.80
2022-03-02T12:20:00,mnr,21.00
2022-03-02T12:21:00,mnr,20.12
2022-03-02T12:22:00,mnr,20.16
2022-03-02T12:23:00,mnr,20.07
2022-03-02T12:24:00,mnr,20.18
2022-03-02T12:25:00,mnr,20.20
2022-03-02T12:26:00,mnr,20.69
2022-03-02T12:27:00,mnr,20.11
2022-03-02T12:28:00,mnr,20.72
2022-03-02T12:29:00,mnr,18.21
2022-03-02T12:30:00,mnr,21.29
2022-03-02T12:31:00,mnr,20.09
2022-03-02T12:32:00,mnr,21.71
2022-03-02T12:33:00,mnr,20.47
2022-03-02T12:34:00,mnr,20.20
2022-03-02T12:35:00,mnr,20.26
2022-03-02T12:36:00,mnr,20.20
2022-03-02T12:37:00,mnr,20.34
2022-03-02T12:38:00,mnr,20.33
2022-03-02T12:39:00,mnr,20.87
2022-03-02T12:40:00,mnr,20.28
2022-03-02T12:41:00,mnr,20.07
2022-03-02T12:42:00,mnr,20.16
2022-03-02T12:43:00,mnr,20.06
2022-03-02T12:44:00,mnr,20.08
2022-03-02T12:45:00,mnr,20.12
2022-03-02T12:46:00,mnr,20.33
2022-03-02T12:47:00,mnr,21.15
2022-03-02T12:48:00,mnr,19.01
2022-03-02T12:49:00,mnr,19.93
2022-03-02T12:50:00,mnr,19.68
2022-03-02T12:51:00,mnr,19.28
2022-03-02T12:52:00,mnr,19.03
2022-03-02T12:53:00,mnr,18.92
2022-03-02T12:54:00,mnr,19.60
2022-03-02T12:55:00,mnr,19.70
2022-03-02T12:56:00,mnr,20.31
2022-03-02T12:57:00,mnr,20.10
2022-03-02T12:58:00,mnr,20.14
2022-03-02T12:59:00,mnr,19.68
2022-03-02T13:00:00,mnr,19.63
2022-03-02T13:01:00,mnr,20.62
2022-03-02T13:02:00,mnr,19.77
2022-03-02T13:03:00,mnr,19.71
2022-03-02T13:04:00,mnr,20.60
2022-03-02T13:05:00,mnr,20.23
2022-03-02T13:06:00,mnr,19.81
2022-03-02T13:07:00,mnr,20.65
2022-03-02T13:08:00,mnr,19.87
2022-03-02T13:09:00,mnr,19.93
2022-03-02T13:10:00,mnr,20.28
2022-03-02T13:11:00,mnr,19.48
2022-03-02T13:12:00,mnr,20.28
2022-03-02T13:13:00,mnr,22.07
2022-03-02T13:14:00,mnr,21.82
2022-03-02T13:15:00,mnr,19.84
2022-03-02T13:16:00,mnr,19.60
2022-03-02T13:17:00,mnr,20.31
2022-03-02T13:18:00,mnr,21.82
2022-03-02T13:19:00,mnr,21.12
2022-03-02T13:20:00,mnr,20.06
2022-03-02T13:21:00,mnr,19.46
2022-03-02T13:22:00,mnr,19.29
2022-03-02T13:23:00,mnr,19.20
2022-03-02T13:24:00,mnr,19.17
2022-03-02T13:25:00,mnr,19.18
2022-03-02T13:26:00,mnr,14.97
2022-03-02T13:27:00,mnr,19.37